Regional Weather Roundup
Issued by NWS Kansas City/Pleasant Hill, MO

Home | Current Version | Previous Version | Graphics & Text | Print | Product List | Glossary Off
Versions: 1 2 3 4 5 6 7 8 9 10 11 12 13 14 15 16 17 18 19 20 21 22 23 24 25 26 27 28 29 30 31 32 33 34 35 36 37 38 39 40 41 42 43 44 45 46 47 48 49 50

000
ASUS43 KEAX 042010
RWREAX

WEATHER ROUNDUP FOR EASTERN KANSAS AND NORTHWEST MISSOURI
NATIONAL WEATHER SERVICE KANSAS CITY/PLEASANT HILL MO
200 PM CST WED MAR 04 2015

KSZ040-057-103>105-MOZ028-029-037-043-042100-
...KANSAS CITY METROPOLITAN AREA...

CITY           SKY/WX    TMP DP  RH WIND       PRES   REMARKS
K.C. INTL      CLOUDY    27   4  37 N12       30.28  WCI  17
K.C. DOWNTOWN  CLOUDY    27   1  32 N12G22    30.30  WCI  17
LEES SUMMIT    CLOUDY    25   3  38 N12       30.28  WCI  14
OLATHE - IXD   CLOUDY    25   8  48 N13       30.27  WCI  14
OLATHE - OJC   CLOUDY    24   5  44 N14       30.26  WCI  12
LAWRENCE       CLOUDY    28   4  35 N15G22    30.30  WCI  16

$$

MOZ001>008-011>017-020>025-030>033-038>040-044>046-053-054-042100-
...NORTHERN AND CENTRAL MISSOURI...

CITY           SKY/WX    TMP DP  RH WIND       PRES   REMARKS
ST. JOSEPH     PTSUNNY   30   4  33 N16G24    30.30  WCI  19
MOSBY          CLOUDY    27   0  31 N10       30.30F WCI  17
WARRENSBURG    CLOUDY    27   5  39 N13       30.28F WCI  16
WHITEMAN AFB   CLOUDY    25   8  49 N16       30.26F WCI  12
CLINTON        PTSUNNY   28  10  47 N16       30.28F WCI  17
SEDALIA        PTSUNNY   25   9  50 N13       30.28  WCI  14
WARSAW         NOT AVBL
MARSHALL       CLOUDY    27  10  50 N10       30.32  WCI  17
CHILLICOTHE      N/A     26   5  40 VRB7      30.31F WCI  18
KIRKSVILLE     NOT AVBL

$$

MOZ041-047>049-056>058-063>065-088>090-097-042100-
...EASTERN AND SOUTHERN MISSOURI...

CITY           SKY/WX    TMP DP  RH WIND       PRES   REMARKS
ST. LOUIS INTL CLOUDY    24   7  48 N12       30.23S WCI  13
SPIRIT OF STL  CLOUDY    23   6  48 N13       30.23  WCI  11
COLUMBIA       CLOUDY    24   6  46 N15       30.24  WCI  11
JEFFERSON CITY CLOUDY    24   4  42 N9        30.28  WCI  14
MEXICO         PTSUNNY   27   9  46 NW15      30.26S WCI  15
ROLLA          FLURRIES  20   7  57 N16       30.19  WCI   6
OSAGE BEACH    CLOUDY    25   9  50 N8        30.25R WCI  16
SPRINGFIELD    FLURRIES  22  13  68 N20       30.19R WCI   7
BRANSON        SNOW      25  23  93 N14G23    30.17R VSB 1/2 WCI  13
JOPLIN         FLURRIES  25  15  66 N13G22    30.22  WCI  14
WEST PLAINS    SNOW      21  16  81 N16G24    30.13R VSB 1/2 WCI   7

$$

IAZ060-094-KSZ022-034>040-054-083-096-NEZ052-066-093-042100-
...KANSAS...SOUTHEAST NEBRASKA AND IOWA...

CITY           SKY/WX    TMP DP  RH WIND       PRES   REMARKS
TOPEKA         CLOUDY    29   5  36 N14       30.31  WCI  18
MANHATTAN      MOSUNNY   33   2  26 N10G22    30.30  WCI  25
EMPORIA        CLOUDY    27  10  49 N12G24    30.26  WCI  17
CHANUTE        PTSUNNY   27  10  49 N13G28    30.26F WCI  16
WICHITA        CLOUDY    28  11  48 N18G25    30.27  WCI  15
OMAHA          MOSUNNY   30  -1  26 NW20G33   30.27  WCI  17
LINCOLN        PTSUNNY   29   4  34 N16       30.29  WCI  17
FALLS CITY     PTSUNNY   30   5  34 NW8G18    30.29  WCI  22
LAMONI         MOSUNNY   26   8  46 W10G21    30.27  WCI  16
DES MOINES     PTSUNNY   28   7  41 W20       30.24  WCI  15

$$




USA.gov is the U.S. government's official web portal to all federal, state and local government web resources and services.